Home > Weather > Coquitlam > Past weeks

Flag for Canada Weather for the Past 2 Weeks in Coquitlam, British Columbia, Canada

Now
70 °F

Mild.


Feels Like: 70 °F
Forecast: 54 / 71 °F
Wind: 3 mph from South

Location: P. Meadows Coastal Station

Current Time: May 3, 2016 at 11:57:20 AM

Latest Report: May 3, 2016 at 11:00 AM


Visibility: N/A

Pressure: 30.01 "Hg

Humidity: 54%

Dew Point: 52 °F

Location of CoquitlamLocation

Historic Weather in Coquitlam — Graph

°F

Coquitlam Temperature Yesterday

Maximum temperature yesterday: 86 °F (at 7:00 PM)
Minimum temperature yesterday: 48 °F (at 5:00 AM)
Average temperature yesterday: 68 °F

High & Low Weather Summary for the Past Weeks

 TemperatureHumidityPressure
High86 °F (May 2, 7:00 PM)96% (Apr 25, 7:00 AM)30.37 "Hg (Apr 25, 7:00 AM)
Low-17 °F (Apr 20, 5:00 AM)19% (May 2, 5:00 PM)29.59 "Hg (Apr 22, 5:00 AM)
Average57 °F67%30.02 "Hg
* Reported Apr 18 10:00 AM — May 3 10:00 AM, Coquitlam, Weather by CustomWeather, © 2016

Note: Actual official high and low records may vary slightly from our data, if they occured in-between our weather recording intervals... More about our weather records

Advertising

Coquitlam Weather History for the Previous 24 Hours

Scroll right to see more
 ConditionsComfort  
Time TempWeatherWind HumidityBarometerVisibility
10:00 AM
Tue, May 3
66 °FMild.2 mph60%30.01 "HgN/A
9:00 AM65 °FMild.2 mph59%30.02 "HgN/A
8:00 AM63 °FMild.3 mph67%30.00 "HgN/A
7:00 AM59 °FCool.2 mph79%29.97 "HgN/A
6:00 AM56 °FCool.1 mph84%29.98 "HgN/A
5:00 AM56 °FCool.1 mph80%29.97 "HgN/A
4:00 AM58 °FCool.2 mph76%29.96 "HgN/A
3:00 AM62 °FMild.2 mph62%29.95 "HgN/A
2:00 AM67 °FMild.6 mph51%29.93 "HgN/A
1:00 AM67 °FMild.9 mph53%29.92 "HgN/A
12:00 AM69 °FMild.6 mph55%29.96 "HgN/A
11:00 PM
Mon, May 2
67 °FMild.5 mph59%29.93 "HgN/A
10:00 PM70 °FMild.6 mph49%29.94 "HgN/A
9:00 PM72 °FMild.2 mph47%29.88 "HgN/A
8:00 PM80 °FPleasantly warm.1 mph30%29.87 "HgN/A
7:00 PM86 °FPleasantly warm.1 mph20%29.86 "HgN/A
6:00 PM85 °FPleasantly warm.2 mph21%29.87 "HgN/A
5:00 PM86 °FPleasantly warm.2 mph19%29.88 "HgN/A
4:00 PM86 °FPleasantly warm.3 mph24%29.90 "HgN/A
3:00 PM84 °FPleasantly warm.2 mph22%29.92 "HgN/A
2:00 PM83 °FPleasantly warm.3 mph24%29.94 "HgN/A
1:00 PM80 °FPleasantly warm.1 mph27%29.96 "HgN/A
12:00 PM77 °FPleasantly warm.2 mph37%29.98 "HgN/A
11:00 AM72 °FMild.1 mph44%29.98 "HgN/A
Weather by CustomWeather, © 2016

See weather overviewHow to use our weather pages